UAL238 KMIA-KBOS

Flight info

Callsign UAL238
Flight time N/A
Altitude 39000
Route FOLZZ3 ALYRA GRUBR/N0486F390 Y299 SEELO WAALT Q131 EARZZ JAMIE Q133 JFK ROBUC3
Aircraft B789/H-SDE1E2E3FGHIJ2J3J4J5M1RWXY/LB1D1

Departure

Time N/A
Airport Miami International Airport (KMIA)

Arrival

Time 2026-05-05 01:29
Airport Boston Logan International Airport (KBOS)
Time Latitude Longitude Altitude Speed Heading
2026-05-05 00:38 34.83950 -76.35594 41099 ft 513 kts 13°
2026-05-05 00:38 35.11132 -76.24376 41083 ft 512 kts 13°
2026-05-05 00:39 35.38136 -76.13153 41070 ft 513 kts 13°
2026-05-05 00:39 35.61581 -76.03345 41068 ft 513 kts 13°
2026-05-05 00:40 35.88759 -75.91897 41066 ft 512 kts 13°
2026-05-05 00:40 36.14213 -75.81100 41062 ft 510 kts 13°
2026-05-05 00:41 36.41186 -75.69578 41049 ft 511 kts 13°
2026-05-05 00:41 36.68055 -75.58015 41037 ft 509 kts 13°
2026-05-05 00:42 36.94795 -75.46423 41037 ft 508 kts 13°
2026-05-05 00:42 37.21509 -75.34756 41017 ft 508 kts 13°
2026-05-05 00:43 37.48116 -75.23048 41013 ft 506 kts 13°
2026-05-05 00:43 37.70356 -75.13194 41024 ft 505 kts 13°
2026-05-05 00:44 37.96719 -75.01431 41030 ft 506 kts 14°
2026-05-05 00:44 38.18985 -74.91426 41013 ft 505 kts 15°
2026-05-05 00:45 38.45602 -74.79379 41002 ft 502 kts 15°
2026-05-05 00:45 38.71922 -74.67374 40987 ft 502 kts 15°
2026-05-05 00:46 38.97894 -74.55436 40989 ft 502 kts 16°
2026-05-05 00:46 39.24138 -74.43277 40984 ft 501 kts 15°
2026-05-05 00:47 39.50594 -74.30922 40961 ft 501 kts 15°
2026-05-05 00:47 39.75026 -74.19422 40955 ft 501 kts 15°
2026-05-05 00:48 39.81513 -74.16354 40964 ft 501 kts 16°
2026-05-05 00:48 40.03128 -74.06087 40993 ft 501 kts 15°
2026-05-05 00:49 40.27414 -73.94467 40941 ft 502 kts 15°
2026-05-05 00:49 40.38015 -73.89368 40943 ft 502 kts 15°
2026-05-05 00:50 40.46761 -73.85147 40922 ft 501 kts 15°
2026-05-05 00:50 40.53279 -73.81995 40918 ft 499 kts 15°
2026-05-05 00:51 40.59845 -73.78769 40919 ft 501 kts 20°
2026-05-05 00:51 40.63007 -73.76451 40946 ft 509 kts 32°
2026-05-05 00:51 40.65734 -73.73496 40941 ft 517 kts 43°
2026-05-05 00:52 40.70559 -73.66548 40910 ft 520 kts 44°
2026-05-05 00:52 40.75386 -73.59440 40933 ft 515 kts 44°
2026-05-05 00:53 40.80187 -73.52414 40139 ft 510 kts 44°
2026-05-05 00:53 40.82557 -73.48925 39552 ft 509 kts 44°
2026-05-05 00:53 40.84921 -73.45436 38931 ft 507 kts 44°
2026-05-05 00:53 40.87311 -73.41916 37978 ft 512 kts 44°
2026-05-05 00:54 40.89695 -73.38401 37312 ft 508 kts 44°
2026-05-05 00:54 40.92051 -73.34916 36596 ft 504 kts 44°
2026-05-05 00:54 40.94443 -73.31375 35871 ft 500 kts 44°
2026-05-05 00:54 40.96713 -73.28015 35179 ft 496 kts 44°
2026-05-05 00:55 40.98991 -73.24638 34506 ft 492 kts 43°
2026-05-05 00:55 41.01246 -73.21290 33775 ft 487 kts 43°
2026-05-05 00:55 41.03521 -73.17911 32701 ft 486 kts 44°
2026-05-05 00:55 41.05827 -73.14487 31543 ft 490 kts 44°
2026-05-05 00:56 41.08092 -73.11111 30605 ft 488 kts 44°
2026-05-05 00:56 41.10337 -73.07761 29599 ft 488 kts 44°
2026-05-05 00:56 41.12600 -73.04380 28741 ft 483 kts 44°
2026-05-05 00:56 41.14807 -73.01081 27907 ft 478 kts 44°
2026-05-05 00:57 41.17034 -72.97753 27059 ft 474 kts 44°
2026-05-05 00:57 41.19213 -72.94489 26264 ft 469 kts 44°
2026-05-05 00:57 41.21234 -72.91068 25479 ft 469 kts 54°
2026-05-05 00:57 41.22805 -72.87243 24677 ft 468 kts 59°
2026-05-05 00:58 41.24279 -72.83405 23925 ft 465 kts 60°
2026-05-05 00:58 41.25724 -72.79588 23141 ft 461 kts 60°
2026-05-05 00:58 41.26693 -72.77041 22910 ft 453 kts 59°
2026-05-05 00:58 41.28118 -72.73322 21509 ft 457 kts 60°
2026-05-05 00:59 41.29608 -72.69446 20356 ft 466 kts 60°
2026-05-05 00:59 41.31065 -72.65608 19747 ft 458 kts 61°
2026-05-05 00:59 41.32509 -72.61798 19296 ft 453 kts 61°
2026-05-05 00:59 41.33897 -72.58138 19069 ft 434 kts 60°
2026-05-05 01:00 41.35259 -72.54562 18184 ft 434 kts 61°
2026-05-05 01:00 41.36612 -72.51000 17440 ft 429 kts 61°
2026-05-05 01:00 41.37927 -72.47516 17055 ft 418 kts 61°
2026-05-05 01:00 41.39222 -72.44087 16577 ft 412 kts 61°
2026-05-05 01:01 41.40502 -72.40705 16092 ft 408 kts 61°
2026-05-05 01:01 41.41762 -72.37366 16032 ft 397 kts 61°
2026-05-05 01:01 41.43015 -72.34040 16193 ft 408 kts 61°
2026-05-05 01:01 41.44293 -72.30649 16479 ft 407 kts 61°
2026-05-05 01:02 41.45560 -72.27274 16997 ft 412 kts 61°
2026-05-05 01:02 41.46868 -72.23795 17197 ft 424 kts 61°
2026-05-05 01:02 41.48214 -72.20207 17212 ft 436 kts 61°
2026-05-05 01:02 41.49588 -72.16491 17223 ft 455 kts 62°
2026-05-05 01:03 41.50968 -72.12673 17240 ft 457 kts 62°
2026-05-05 01:03 41.52358 -72.08845 17267 ft 460 kts 62°
2026-05-05 01:03 41.53769 -72.05004 17277 ft 461 kts 62°
2026-05-05 01:03 41.55183 -72.01146 17285 ft 465 kts 62°
2026-05-05 01:04 41.56452 -71.97177 17290 ft 467 kts 67°
2026-05-05 01:04 41.58866 -71.89110 17317 ft 468 kts 66°
2026-05-05 01:04 41.60082 -71.85077 17319 ft 468 kts 66°
2026-05-05 01:05 41.61270 -71.81041 17316 ft 468 kts 67°
2026-05-05 01:05 41.62453 -71.76993 17136 ft 464 kts 67°
2026-05-05 01:05 41.63640 -71.72966 16811 ft 454 kts 66°
2026-05-05 01:05 41.64797 -71.69062 16524 ft 450 kts 66°
2026-05-05 01:06 41.65939 -71.65182 16228 ft 448 kts 67°
2026-05-05 01:06 41.67072 -71.61315 15943 ft 446 kts 67°
2026-05-05 01:06 41.68216 -71.57406 15638 ft 445 kts 67°
2026-05-05 01:06 41.69322 -71.53633 15358 ft 444 kts 67°
2026-05-05 01:07 41.70455 -71.49759 15066 ft 443 kts 67°
2026-05-05 01:07 41.71566 -71.45953 14787 ft 441 kts 67°
2026-05-05 01:07 41.72781 -71.42183 14489 ft 435 kts 59°
2026-05-05 01:07 41.74296 -71.38764 14199 ft 420 kts 58°
2026-05-05 01:08 41.75716 -71.35393 13920 ft 412 kts 59°
2026-05-05 01:08 41.77112 -71.32069 13641 ft 408 kts 58°
2026-05-05 01:08 41.78523 -71.28779 13368 ft 406 kts 58°
2026-05-05 01:08 41.79920 -71.25531 13092 ft 404 kts 58°
2026-05-05 01:09 41.81315 -71.22255 12816 ft 402 kts 58°
2026-05-05 01:09 41.82690 -71.19007 12555 ft 400 kts 58°
2026-05-05 01:09 41.84058 -71.15785 12296 ft 391 kts 58°
2026-05-05 01:09 41.85391 -71.12649 12050 ft 379 kts 58°
2026-05-05 01:10 41.86677 -71.09643 12019 ft 372 kts 58°
2026-05-05 01:10 41.87994 -71.06622 12010 ft 375 kts 58°
2026-05-05 01:10 41.89306 -71.03605 12006 ft 376 kts 58°
2026-05-05 01:10 41.90616 -71.00561 12000 ft 377 kts 58°
2026-05-05 01:11 41.91934 -70.97495 11759 ft 379 kts 58°
2026-05-05 01:11 41.93243 -70.94454 11517 ft 375 kts 58°
2026-05-05 01:11 41.94541 -70.91442 11262 ft 372 kts 58°
2026-05-05 01:11 41.95829 -70.88445 11005 ft 369 kts 58°
2026-05-05 01:12 41.97117 -70.85443 11022 ft 364 kts 58°
2026-05-05 01:12 41.98373 -70.82516 11025 ft 367 kts 58°
2026-05-05 01:12 41.99649 -70.79539 11033 ft 368 kts 58°
2026-05-05 01:12 42.00944 -70.76580 11014 ft 366 kts 54°
2026-05-05 01:13 42.02598 -70.73992 10992 ft 365 kts 45°
2026-05-05 01:13 42.04295 -70.71450 11011 ft 366 kts 46°
2026-05-05 01:13 42.05989 -70.68890 11010 ft 366 kts 46°
2026-05-05 01:13 42.07687 -70.66341 11011 ft 366 kts 45°
2026-05-05 01:14 42.09374 -70.63832 10628 ft 356 kts 44°
2026-05-05 01:14 42.11258 -70.61909 10377 ft 331 kts 24°
2026-05-05 01:14 42.13328 -70.60937 10306 ft 293 kts
2026-05-05 01:14 42.15261 -70.60376 9516 ft 275 kts
2026-05-05 01:15 42.17115 -70.59850 8449 ft 272 kts
2026-05-05 01:15 42.18960 -70.59350 7403 ft 269 kts
2026-05-05 01:15 42.20784 -70.58847 6453 ft 271 kts
2026-05-05 01:15 42.22571 -70.58344 6284 ft 263 kts
2026-05-05 01:16 42.24375 -70.57840 6062 ft 265 kts
2026-05-05 01:16 42.26190 -70.57336 5827 ft 267 kts
2026-05-05 01:16 42.28007 -70.56828 5577 ft 270 kts
2026-05-05 01:16 42.29863 -70.56310 5320 ft 275 kts
2026-05-05 01:17 42.31737 -70.56125 5043 ft 266 kts 345°
2026-05-05 01:17 42.33443 -70.56919 4977 ft 255 kts 323°
2026-05-05 01:17 42.34783 -70.58421 4972 ft 248 kts 311°
2026-05-05 01:17 42.36020 -70.60022 4992 ft 244 kts 311°
2026-05-05 01:18 42.37229 -70.61625 4961 ft 243 kts 311°
2026-05-05 01:18 42.38434 -70.63217 4967 ft 242 kts 311°
2026-05-05 01:18 42.39641 -70.64802 4964 ft 241 kts 311°
2026-05-05 01:18 42.40832 -70.66367 4960 ft 242 kts 311°
2026-05-05 01:19 42.42039 -70.67955 4956 ft 243 kts 311°
2026-05-05 01:19 42.43249 -70.69548 4963 ft 242 kts 311°
2026-05-05 01:19 42.44454 -70.71135 4959 ft 242 kts 311°
2026-05-05 01:19 42.45659 -70.72723 4961 ft 242 kts 311°
2026-05-05 01:20 42.46863 -70.74311 4958 ft 241 kts 311°
2026-05-05 01:20 42.48037 -70.75856 4946 ft 228 kts 310°
2026-05-05 01:20 42.49162 -70.77339 4798 ft 224 kts 310°
2026-05-05 01:20 42.50277 -70.78818 4482 ft 225 kts 310°
2026-05-05 01:21 42.51412 -70.80283 4140 ft 227 kts 315°
2026-05-05 01:21 42.52947 -70.81197 3798 ft 240 kts 342°
2026-05-05 01:21 42.54611 -70.81118 3507 ft 251 kts 11°
2026-05-05 01:21 42.56281 -70.80360 3309 ft 254 kts 15°
2026-05-05 01:22 42.57939 -70.79549 3109 ft 251 kts 11°
2026-05-05 01:22 42.59590 -70.79492 2970 ft 228 kts 344°
2026-05-05 01:22 42.60939 -70.80304 2964 ft 201 kts 315°
2026-05-05 01:22 42.61685 -70.81723 2948 ft 179 kts 279°
2026-05-05 01:23 42.61542 -70.83314 2940 ft 170 kts 242°
2026-05-05 01:23 42.60895 -70.84663 2987 ft 172 kts 236°
2026-05-05 01:23 42.60213 -70.85990 2969 ft 171 kts 236°
2026-05-05 01:23 42.59533 -70.87310 2964 ft 171 kts 236°
2026-05-05 01:24 42.58847 -70.88643 2981 ft 172 kts 235°
2026-05-05 01:24 42.57952 -70.89691 2961 ft 170 kts 217°
2026-05-05 01:24 42.56913 -70.90503 2951 ft 175 kts 207°
2026-05-05 01:24 42.55773 -70.91115 2978 ft 178 kts 206°
2026-05-05 01:25 42.54613 -70.91696 2967 ft 177 kts 205°
2026-05-05 01:25 42.53459 -70.92258 2967 ft 176 kts 205°
2026-05-05 01:25 42.52294 -70.92826 2966 ft 179 kts 204°
2026-05-05 01:25 42.51120 -70.93397 2863 ft 180 kts 204°
2026-05-05 01:26 42.49957 -70.93962 2631 ft 174 kts 204°
2026-05-05 01:26 42.48818 -70.94512 2401 ft 174 kts 205°
2026-05-05 01:26 42.47693 -70.95056 2166 ft 169 kts 205°
2026-05-05 01:26 42.46593 -70.95603 1960 ft 167 kts 205°
2026-05-05 01:27 42.45521 -70.96119 1743 ft 161 kts 205°
2026-05-05 01:27 42.44491 -70.96618 1532 ft 155 kts 205°
2026-05-05 01:27 42.43481 -70.97117 1326 ft 152 kts 204°
2026-05-05 01:27 42.42541 -70.97569 1121 ft 141 kts 204°
2026-05-05 01:28 42.41631 -70.98016 939 ft 138 kts 203°
2026-05-05 01:28 42.40702 -70.98465 760 ft 144 kts 205°
2026-05-05 01:28 42.39772 -70.98932 636 ft 142 kts 204°
2026-05-05 01:28 42.38842 -70.99375 441 ft 143 kts 201°
2026-05-05 01:29 42.37924 -70.99814 216 ft 139 kts 202°
2026-05-05 01:29 42.37047 -71.00234 40 ft 124 kts 201°
2026-05-05 01:29 42.36413 -71.00547 34 ft 68 kts 201°
2026-05-05 01:29 42.36038 -71.00738 27 ft 36 kts 213°
2026-05-05 01:30 42.35892 -71.00940 30 ft 28 kts 231°
2026-05-05 01:30 42.35835 -71.01108 29 ft 18 kts 266°
2026-05-05 01:30 42.35842 -71.01260 31 ft 15 kts 275°
2026-05-05 01:30 42.35853 -71.01389 34 ft 13 kts 278°
2026-05-05 01:31 42.35868 -71.01506 35 ft 13 kts 281°
2026-05-05 01:31 42.35898 -71.01609 36 ft 11 kts 307°
2026-05-05 01:31 42.35936 -71.01701 36 ft 10 kts 290°
2026-05-05 01:31 42.35971 -71.01741 34 ft 6 kts 343°
2026-05-05 01:32 42.35976 -71.01743 34 ft 0 kts 343°